UAL217 KLAX-PHNL

Flight info

Callsign UAL217
Flight time N/A
Altitude 36000
Route SUMMR2 DINTY DUETS R576 DENNS MAGGI3
Aircraft B77W/H-SDE1E2E3FGHIJ2J3J4J5M1RWXY/LB1D1

Departure

Time 2026-04-22 22:54
Airport Los Angeles International Airport (KLAX)

Arrival

Time N/A
Airport Daniel K. Inouye International Airport (PHNL)
Time Latitude Longitude Altitude Speed Heading
2026-04-22 22:46 33.94115 -118.41200 136 ft 0 kts 351°
2026-04-22 22:47 33.94122 -118.41202 136 ft 3 kts 351°
2026-04-22 22:47 33.94152 -118.41207 135 ft 5 kts 352°
2026-04-22 22:47 33.94194 -118.41213 136 ft 6 kts 353°
2026-04-22 22:47 33.94253 -118.41222 136 ft 11 kts 353°
2026-04-22 22:48 33.94342 -118.41235 135 ft 16 kts 354°
2026-04-22 22:48 33.94453 -118.41251 135 ft 16 kts 353°
2026-04-22 22:48 33.94564 -118.41267 136 ft 16 kts 353°
2026-04-22 22:48 33.94667 -118.41283 135 ft 16 kts 353°
2026-04-22 22:49 33.94757 -118.41294 136 ft 14 kts
2026-04-22 22:49 33.94808 -118.41216 136 ft 15 kts 83°
2026-04-22 22:49 33.94814 -118.41125 136 ft 10 kts 85°
2026-04-22 22:49 33.94819 -118.41074 136 ft 7 kts 83°
2026-04-22 22:50 33.94825 -118.41015 136 ft 9 kts 83°
2026-04-22 22:50 33.94833 -118.40936 136 ft 13 kts 84°
2026-04-22 22:50 33.94844 -118.40822 135 ft 17 kts 84°
2026-04-22 22:50 33.94859 -118.40672 134 ft 21 kts 83°
2026-04-22 22:51 33.94875 -118.40507 133 ft 23 kts 84°
2026-04-22 22:51 33.94894 -118.40314 131 ft 21 kts 84°
2026-04-22 22:51 33.94909 -118.40157 130 ft 21 kts 83°
2026-04-22 22:51 33.94926 -118.40005 128 ft 15 kts 82°
2026-04-22 22:52 33.94947 -118.39945 126 ft 7 kts 48°
2026-04-22 22:52 33.94997 -118.39922 125 ft 10 kts
2026-04-22 22:52 33.95036 -118.39963 125 ft 8 kts 278°
2026-04-22 22:52 33.95036 -118.39988 125 ft 0 kts 265°
2026-04-22 22:53 33.95036 -118.39989 125 ft 0 kts 265°
2026-04-22 22:53 33.95036 -118.39993 125 ft 2 kts 265°
2026-04-22 22:53 33.95031 -118.40060 126 ft 12 kts 264°
2026-04-22 22:53 33.95025 -118.40122 126 ft 0 kts 262°
2026-04-22 22:54 33.95019 -118.40176 127 ft 29 kts 263°
2026-04-22 22:54 33.94952 -118.40815 136 ft 123 kts 262°
2026-04-22 22:54 33.94709 -118.43626 760 ft 216 kts 264°
2026-04-22 22:55 33.94513 -118.45635 2276 ft 215 kts 261°
2026-04-22 22:55 33.94148 -118.52300 5239 ft 258 kts 267°
2026-04-22 22:56 33.93698 -118.57658 7809 ft 266 kts 267°
2026-04-22 22:56 33.93456 -118.60719 9373 ft 264 kts 267°
2026-04-22 22:56 33.93280 -118.62959 10408 ft 266 kts 267°